Coolangatta, Australia

8:16 PM AEST on May 28, 2017 (GMT +1000)
Coolangatta

Weather History for YBCG - October, 2013

Change the Weather History Date:

Saturday, October 12, 2013

  Actual Average Record
Temperature  
Mean Temperature 72 °F -  
Max Temperature 77 °F - - ()
Min Temperature 68 °F - - ()
Cooling Degree Days 8    
Growing Degree Days 22 (Base 50)    
Moisture  
Dew Point 65 °F    
Average Humidity 79    
Maximum Humidity 94    
Minimum Humidity 66    
Precipitation  
Precipitation 0.00 in - - ()
Sea Level Pressure  
Sea Level Pressure 30.02 in    
Wind  
Wind Speed 9 mph ()    
Max Wind Speed 14 mph    
Max Gust Speed -    
Visibility 6.0 miles    
Events      
T = Trace of Precipitation, MM = Missing Value Source: Averaged Metar Reports

Daily Weather History Graph

Daily Weather History Graph

Search for Another Location

Airport or City:

Trip Planner

Search our weather history database for the weather conditions in past years. The results will help you decide how hot, cold, wet, or windy it might be!

Date:

Astronomy

Oct. 12, 2013 Rise Set
Actual Time 5:13 AM AEST 5:52 PM AEST
Civil Twilight 4:49 AM AEST 6:16 PM AEST
Nautical Twilight 4:21 AM AEST 6:44 PM AEST
Astronomical Twilight 3:52 AM AEST 7:12 PM AEST
Moon 11:09 AM AEST (10/12) 12:00 AM AEST (10/12)
Length of Visible Light 13h 27m
Length of Day
12h 39m
First Quarter, 51% of the Moon is Illuminated
Oct 12
First Quarter
Oct 19
Full
Oct 27
Last Quarter
Nov 3
New
Nov 10
First Quarter

Hourly Weather History & Observations

Time (AEST) Temp. Dew Point Humidity Pressure Visibility Wind Dir Wind Speed Gust Speed Precip Events Conditions
12:00 AM 70 °F 63 °F 72% 30.05 in - SE 11.5 mph - -   Overcast
12:00 AM 69.8 °F 62.6 °F 78% 30.04 in 6.2 mi SE 11.5 mph - N/A   Overcast
12:30 AM 69.8 °F 62.6 °F 78% 30.04 in 6.2 mi SE 9.2 mph - N/A   Overcast
1:00 AM 69.8 °F 62.6 °F 78% 30.04 in 6.2 mi ESE 11.5 mph - N/A   Overcast
1:30 AM 69.8 °F 62.6 °F 78% 30.01 in 6.2 mi SE 10.4 mph - N/A   Overcast
2:00 AM 69.8 °F 62.6 °F 78% 30.01 in 6.2 mi SE 11.5 mph - N/A   Overcast
2:30 AM 69.8 °F 62.6 °F 78% 30.01 in 6.2 mi SSE 9.2 mph - N/A   Overcast
3:00 AM 68 °F 62 °F 74% 30.01 in - SE 9.2 mph - -  
3:00 AM 68.0 °F 62.6 °F 83% 30.01 in 6.2 mi SE 9.2 mph - N/A   Overcast
3:30 AM 69.8 °F 62.6 °F 78% 30.01 in 6.2 mi SE 9.2 mph - N/A   Overcast
4:00 AM 69.8 °F 62.6 °F 78% 30.01 in 6.2 mi East 9.2 mph - N/A   Overcast
4:30 AM 69.8 °F 62.6 °F 78% 30.04 in 6.2 mi East 8.1 mph - N/A   Overcast
5:00 AM 69.8 °F 62.6 °F 78% 30.04 in 6.2 mi ESE 8.1 mph - N/A   Overcast
5:30 AM 69.8 °F 62.6 °F 78% 30.04 in 6.2 mi ESE 6.9 mph - N/A   Overcast
6:00 AM 70 °F 63 °F 72% 30.06 in - ESE 5.8 mph - -  
6:00 AM 69.8 °F 62.6 °F 78% 30.04 in 6.2 mi ESE 5.8 mph - N/A   Overcast
6:30 AM 69.8 °F 62.6 °F 78% 30.06 in 6.2 mi ESE 5.8 mph - N/A   Overcast
7:00 AM 71.6 °F 64.4 °F 78% 30.06 in 6.2 mi SE 6.9 mph - N/A   Overcast
7:30 AM 73.4 °F 64.4 °F 73% 30.06 in 6.2 mi ESE 6.9 mph - N/A   Overcast
8:00 AM 75.2 °F 64.4 °F 69% 30.06 in 6.2 mi ENE 10.4 mph - N/A   Overcast
8:30 AM 73.4 °F 64.4 °F 73% 30.09 in 6.2 mi ENE 9.2 mph - N/A   Overcast
9:00 AM 74 °F 65 °F 67% 30.09 in - ENE 8.1 mph - -   Overcast
9:00 AM 73.4 °F 64.4 °F 73% 30.09 in 6.2 mi ENE 8.1 mph - N/A   Overcast
9:30 AM 73.4 °F 64.4 °F 73% 30.09 in 6.2 mi ENE 6.9 mph - N/A   Overcast
9:53 AM 71.6 °F 66.2 °F 83% 30.06 in 3.7 mi NE 5.8 mph - N/A   Overcast
10:00 AM 71.6 °F 66.2 °F 83% 30.06 in 3.7 mi ENE 6.9 mph - N/A   Overcast
10:02 AM 71.6 °F 66.2 °F 83% 30.06 in 4.3 mi ENE 5.8 mph - N/A   Overcast
10:10 AM 71.6 °F 68.0 °F 88% 30.06 in 5.6 mi NE 6.9 mph - N/A   Overcast
10:14 AM 71.6 °F 66.2 °F 83% 30.06 in 6.2 mi NE 6.9 mph - N/A   Overcast
10:28 AM 75.2 °F 68.0 °F 78% 30.06 in 6.2 mi NNE 9.2 mph - N/A   Overcast
10:30 AM 75.2 °F 68.0 °F 78% 30.06 in 6.2 mi NNE 9.2 mph - N/A   Overcast
11:00 AM 75.2 °F 66.2 °F 73% 30.06 in 5.6 mi NNE 9.2 mph - N/A   Overcast
11:30 AM 77.0 °F 68.0 °F 74% 30.04 in 6.2 mi NNE 9.2 mph - N/A   Overcast
12:00 PM 76 °F 67 °F 68% 30.04 in - NE 9.2 mph - -   Overcast
12:00 PM 77.0 °F 68.0 °F 74% 30.04 in 6.2 mi NE 9.2 mph - N/A   Overcast
12:30 PM 75.2 °F 68.0 °F 78% 30.01 in 6.2 mi NE 9.2 mph - N/A   Overcast
1:00 PM 75.2 °F 68.0 °F 78% 30.01 in 6.2 mi NNE 9.2 mph - N/A   Overcast
1:30 PM 77.0 °F 68.0 °F 74% 30.01 in 6.2 mi NNE 9.2 mph - N/A   Overcast
2:00 PM 77.0 °F 68.0 °F 74% 29.98 in 6.2 mi NNE 10.4 mph - N/A   Mostly Cloudy
2:30 PM 77.0 °F 68.0 °F 74% 29.98 in 6.2 mi NNE 11.5 mph - N/A   Unknown
3:00 PM 76 °F 67 °F 66% 29.97 in - NNE 11.5 mph - -  
3:00 PM 75.2 °F 66.2 °F 73% 29.95 in 6.2 mi NNE 11.5 mph - N/A   Unknown
3:30 PM 75.2 °F 66.2 °F 73% 29.95 in 6.2 mi North 10.4 mph - N/A   Unknown
4:00 PM 75.2 °F 66.2 °F 73% 29.95 in 6.2 mi NNE 11.5 mph - N/A   Unknown
4:30 PM 75.2 °F 68.0 °F 78% 29.95 in 6.2 mi North 10.4 mph - N/A   Unknown
5:00 PM 73.4 °F 68.0 °F 83% 29.95 in 6.2 mi North 11.5 mph - N/A   Unknown
5:30 PM 71.6 °F 68.0 °F 88% 29.95 in 6.2 mi North 11.5 mph - N/A   Unknown
6:00 PM 71 °F 67 °F 83% 29.97 in - North 11.5 mph - -  
6:00 PM 71.6 °F 66.2 °F 83% 29.95 in 6.2 mi North 11.5 mph - N/A   Unknown
6:30 PM 71.6 °F 68.0 °F 88% 29.98 in 6.2 mi North 13.8 mph - N/A   Unknown
7:00 PM 71.6 °F 66.2 °F 83% 29.98 in 6.2 mi North 13.8 mph - N/A   Unknown
7:30 PM 69.8 °F 66.2 °F 88% 29.98 in 6.2 mi North 12.7 mph - N/A   Scattered Clouds
8:00 PM 69.8 °F 66.2 °F 88% 29.98 in 6.2 mi North 10.4 mph - N/A   Overcast
8:30 PM 69.8 °F 66.2 °F 88% 29.98 in 6.2 mi North 9.2 mph - N/A   Mostly Cloudy
9:00 PM 69 °F 65 °F 85% 30.01 in - North 9.2 mph - -  
9:00 PM 69.8 °F 66.2 °F 88% 30.01 in 6.2 mi North 9.2 mph - N/A   Unknown
9:30 PM 69.8 °F 66.2 °F 88% 30.01 in 6.2 mi North 9.2 mph - N/A   Unknown
10:00 PM 69.8 °F 66.2 °F 88% 30.01 in 6.2 mi North 11.5 mph - N/A   Unknown
10:30 PM 69.8 °F 66.2 °F 88% 29.98 in 6.2 mi North 11.5 mph - N/A   Unknown
11:00 PM 68.0 °F 66.2 °F 94% 30.01 in 6.2 mi North 9.2 mph - N/A   Scattered Clouds
11:30 PM 69.8 °F 64.4 °F 83% 30.01 in 6.2 mi NNW 8.1 mph - N/A   Unknown